TVS1DE LKPR-LDSP

Flight info

Callsign TVS1DE
Flight time 1h 19m
Altitude 33000
Route VOZ DCT PISAM DCT PETOV DCT NIVES DCT NUPSO
Aircraft B738/M-SDFGHIJ1LORVWXYZ/LB1

Departure

Time 2026-05-07 11:54
Airport Václav Havel Airport Prague (LKPR)

Arrival

Time 2026-05-07 13:14
Airport Split Saint Jerome Airport (LDSP)
Time Latitude Longitude Altitude Speed Heading
2026-05-07 11:21 50.10364 14.26741 1170 ft 0 kts 34°
2026-05-07 11:45 50.10351 14.26728 1168 ft 4 kts 31°
2026-05-07 11:45 50.10331 14.26715 1170 ft 4 kts 335°
2026-05-07 11:45 50.10326 14.26721 1169 ft 1 kts 304°
2026-05-07 11:48 50.10326 14.26719 1169 ft 1 kts 304°
2026-05-07 11:48 50.10340 14.26689 1170 ft 7 kts 304°
2026-05-07 11:49 50.10332 14.26606 1170 ft 6 kts 221°
2026-05-07 11:49 50.10308 14.26579 1172 ft 7 kts 216°
2026-05-07 11:49 50.10239 14.26533 1176 ft 6 kts 161°
2026-05-07 11:49 50.10204 14.26587 1175 ft 10 kts 127°
2026-05-07 11:50 50.10167 14.26663 1176 ft 16 kts 127°
2026-05-07 11:50 50.10093 14.26815 1185 ft 18 kts 127°
2026-05-07 11:50 50.10020 14.26970 1194 ft 17 kts 123°
2026-05-07 11:50 50.09949 14.27115 1198 ft 17 kts 129°
2026-05-07 11:51 50.09878 14.27261 1201 ft 18 kts 126°
2026-05-07 11:51 50.09780 14.27426 1204 ft 22 kts 136°
2026-05-07 11:51 50.09673 14.27588 1206 ft 21 kts 134°
2026-05-07 11:51 50.09571 14.27747 1210 ft 21 kts 136°
2026-05-07 11:52 50.09470 14.27900 1214 ft 20 kts 134°
2026-05-07 11:52 50.09373 14.28049 1214 ft 19 kts 136°
2026-05-07 11:52 50.09285 14.28183 1213 ft 16 kts 135°
2026-05-07 11:52 50.09201 14.28284 1210 ft 15 kts 164°
2026-05-07 11:53 50.09112 14.28222 1210 ft 14 kts 226°
2026-05-07 11:53 50.09069 14.28141 1208 ft 7 kts 247°
2026-05-07 11:53 50.09072 14.28113 1207 ft 3 kts 302°
2026-05-07 11:53 50.09105 14.28042 1208 ft 22 kts 306°
2026-05-07 11:54 50.09347 14.27539 1209 ft 93 kts 307°
2026-05-07 11:54 50.09870 14.26460 1202 ft 154 kts 307°
2026-05-07 11:54 50.10597 14.24960 1541 ft 179 kts 301°
2026-05-07 11:54 50.11314 14.23464 2699 ft 163 kts 302°
2026-05-07 11:55 50.12005 14.22019 3522 ft 171 kts 302°
2026-05-07 11:55 50.12715 14.20551 4414 ft 170 kts 302°
2026-05-07 11:55 50.13472 14.18974 4812 ft 199 kts 302°
2026-05-07 11:55 50.14366 14.17106 5053 ft 225 kts 302°
2026-05-07 11:56 50.15335 14.15091 5377 ft 249 kts 303°
2026-05-07 11:56 50.16406 14.12870 6045 ft 260 kts 303°
2026-05-07 11:56 50.17494 14.10579 6875 ft 264 kts 299°
2026-05-07 11:56 50.18093 14.07898 7691 ft 261 kts 271°
2026-05-07 11:57 50.17845 14.05122 8528 ft 262 kts 247°
2026-05-07 11:57 50.16874 14.02726 9334 ft 265 kts 225°
2026-05-07 11:57 50.15443 14.00885 10121 ft 269 kts 218°
2026-05-07 11:57 50.13855 13.99189 10491 ft 290 kts 207°
2026-05-07 11:58 50.11805 13.98422 10671 ft 319 kts 182°
2026-05-07 11:58 50.09596 13.99128 11148 ft 338 kts 161°
2026-05-07 11:58 50.07418 14.00613 11873 ft 344 kts 158°
2026-05-07 11:58 50.05238 14.02186 12680 ft 347 kts 158°
2026-05-07 11:59 50.03037 14.03778 13467 ft 351 kts 158°
2026-05-07 11:59 50.00812 14.05370 14197 ft 354 kts 158°
2026-05-07 11:59 49.98561 14.06959 14915 ft 356 kts 158°
2026-05-07 11:59 49.96289 14.08550 15627 ft 359 kts 158°
2026-05-07 12:00 49.93997 14.10146 16310 ft 363 kts 158°
2026-05-07 12:00 49.91683 14.11754 17011 ft 365 kts 158°
2026-05-07 12:00 49.89353 14.13369 17725 ft 368 kts 158°
2026-05-07 12:00 49.87009 14.15019 18385 ft 372 kts 154°
2026-05-07 12:01 49.84898 14.17415 18908 ft 381 kts 136°
2026-05-07 12:01 49.83212 14.20638 19497 ft 386 kts 130°
2026-05-07 12:01 49.81599 14.23993 20069 ft 390 kts 129°
2026-05-07 12:01 49.80008 14.27343 20625 ft 393 kts 129°
2026-05-07 12:02 49.78375 14.30760 21164 ft 397 kts 130°
2026-05-07 12:02 49.76715 14.34196 21716 ft 400 kts 130°
2026-05-07 12:02 49.75037 14.37642 22259 ft 402 kts 130°
2026-05-07 12:02 49.73338 14.41108 22793 ft 405 kts 131°
2026-05-07 12:03 49.71627 14.44590 23320 ft 408 kts 131°
2026-05-07 12:03 49.69902 14.48096 23763 ft 411 kts 131°
2026-05-07 12:03 49.68163 14.51625 24212 ft 413 kts 131°
2026-05-07 12:03 49.66427 14.55179 24679 ft 416 kts 130°
2026-05-07 12:04 49.64813 14.58896 25125 ft 419 kts 127°
2026-05-07 12:04 49.63270 14.62728 25546 ft 422 kts 127°
2026-05-07 12:04 49.61737 14.66596 25958 ft 423 kts 127°
2026-05-07 12:04 49.60207 14.70422 26352 ft 425 kts 128°
2026-05-07 12:05 49.58635 14.74298 26757 ft 427 kts 128°
2026-05-07 12:05 49.57048 14.78172 27152 ft 428 kts 129°
2026-05-07 12:05 49.55446 14.82055 27513 ft 430 kts 129°
2026-05-07 12:05 49.53774 14.85858 27954 ft 424 kts 137°
2026-05-07 12:06 49.51644 14.88837 28507 ft 407 kts 153°
2026-05-07 12:06 49.49216 14.90952 29203 ft 396 kts 158°
2026-05-07 12:06 49.46780 14.92895 29828 ft 392 kts 159°
2026-05-07 12:06 49.44350 14.94803 30254 ft 392 kts 159°
2026-05-07 12:07 49.41910 14.96720 30525 ft 395 kts 159°
2026-05-07 12:07 49.39463 14.98658 30811 ft 396 kts 159°
2026-05-07 12:07 49.37007 15.00618 31162 ft 397 kts 158°
2026-05-07 12:07 49.34564 15.02579 31503 ft 397 kts 158°
2026-05-07 12:08 49.32140 15.04527 31805 ft 398 kts 158°
2026-05-07 12:08 49.29681 15.06505 32128 ft 399 kts 158°
2026-05-07 12:08 49.27219 15.08484 32436 ft 400 kts 158°
2026-05-07 12:08 49.24749 15.10469 32766 ft 400 kts 158°
2026-05-07 12:09 49.22278 15.12452 32953 ft 403 kts 158°
2026-05-07 12:09 49.17283 15.16452 32943 ft 404 kts 158°
2026-05-07 12:10 49.12369 15.20384 32948 ft 398 kts 158°
2026-05-07 12:10 49.07455 15.24301 32960 ft 399 kts 158°
2026-05-07 12:11 49.02533 15.28214 32964 ft 399 kts 158°
2026-05-07 12:11 48.97598 15.32131 32955 ft 400 kts 158°
2026-05-07 12:12 48.92645 15.36054 32957 ft 401 kts 159°
2026-05-07 12:12 48.87531 15.39157 32958 ft 391 kts 172°
2026-05-07 12:13 48.82186 15.40489 32952 ft 389 kts 175°
2026-05-07 12:13 48.76858 15.41710 32956 ft 389 kts 175°
2026-05-07 12:14 48.71508 15.42957 32956 ft 388 kts 175°
2026-05-07 12:14 48.66170 15.44217 32958 ft 388 kts 175°
2026-05-07 12:15 48.60845 15.45479 32963 ft 387 kts 175°
2026-05-07 12:15 48.55508 15.46743 32954 ft 387 kts 175°
2026-05-07 12:16 48.50194 15.47999 32962 ft 386 kts 175°
2026-05-07 12:16 48.44883 15.49252 32959 ft 386 kts 175°
2026-05-07 12:17 48.39607 15.50493 32962 ft 386 kts 175°
2026-05-07 12:17 48.34311 15.51737 32965 ft 385 kts 176°
2026-05-07 12:18 48.29017 15.52978 32970 ft 385 kts 176°
2026-05-07 12:18 48.23725 15.54215 32973 ft 385 kts 176°
2026-05-07 12:19 48.18430 15.55450 32966 ft 385 kts 176°
2026-05-07 12:19 48.13133 15.56684 32972 ft 385 kts 176°
2026-05-07 12:20 48.07875 15.57906 32973 ft 384 kts 176°
2026-05-07 12:20 48.02598 15.59130 32959 ft 383 kts 176°
2026-05-07 12:21 47.97356 15.60349 33034 ft 378 kts 176°
2026-05-07 12:21 47.92116 15.61554 32994 ft 383 kts 176°
2026-05-07 12:22 47.86833 15.62769 32984 ft 385 kts 176°
2026-05-07 12:22 47.81527 15.63988 32970 ft 386 kts 176°
2026-05-07 12:23 47.76207 15.65210 32976 ft 386 kts 176°
2026-05-07 12:23 47.70901 15.66428 32972 ft 384 kts 176°
2026-05-07 12:24 47.65637 15.67630 32991 ft 386 kts 176°
2026-05-07 12:24 47.60320 15.68844 32971 ft 387 kts 176°
2026-05-07 12:25 47.54993 15.70056 32974 ft 387 kts 176°
2026-05-07 12:25 47.49660 15.71265 32963 ft 387 kts 176°
2026-05-07 12:26 47.44332 15.72474 32974 ft 387 kts 176°
2026-05-07 12:26 47.39013 15.73678 32972 ft 386 kts 176°
2026-05-07 12:27 47.33698 15.74879 32968 ft 386 kts 176°
2026-05-07 12:27 47.28419 15.76068 32959 ft 385 kts 176°
2026-05-07 12:28 47.23122 15.77260 32951 ft 385 kts 176°
2026-05-07 12:28 47.17821 15.78449 32945 ft 385 kts 176°
2026-05-07 12:29 47.12525 15.79635 32950 ft 384 kts 177°
2026-05-07 12:29 47.07238 15.80817 32950 ft 384 kts 177°
2026-05-07 12:30 47.01954 15.81995 32946 ft 384 kts 177°
2026-05-07 12:30 46.96700 15.83165 32954 ft 384 kts 177°
2026-05-07 12:31 46.91401 15.84341 32948 ft 385 kts 177°
2026-05-07 12:31 46.86093 15.85518 32955 ft 386 kts 177°
2026-05-07 12:32 46.80779 15.86694 32968 ft 386 kts 177°
2026-05-07 12:32 46.75451 15.87871 32950 ft 387 kts 177°
2026-05-07 12:33 46.67490 15.89625 32956 ft 387 kts 177°
2026-05-07 12:33 46.62171 15.90795 32964 ft 386 kts 177°
2026-05-07 12:34 46.56849 15.91962 32963 ft 386 kts 178°
2026-05-07 12:34 46.51535 15.93125 32965 ft 386 kts 178°
2026-05-07 12:35 46.46223 15.94286 32960 ft 386 kts 178°
2026-05-07 12:35 46.41799 15.95251 32965 ft 385 kts 178°
2026-05-07 12:36 46.35644 15.96591 32971 ft 384 kts 178°
2026-05-07 12:36 46.31207 15.97491 32971 ft 382 kts 181°
2026-05-07 12:37 46.25964 15.97338 32976 ft 376 kts 188°
2026-05-07 12:37 46.20756 15.96962 32970 ft 377 kts 188°
2026-05-07 12:38 46.15497 15.96604 32976 ft 379 kts 188°
2026-05-07 12:38 46.10219 15.96259 32978 ft 379 kts 188°
2026-05-07 12:39 46.04936 15.95918 32990 ft 380 kts 188°
2026-05-07 12:39 45.99645 15.95579 32999 ft 381 kts 188°
2026-05-07 12:40 45.94334 15.95240 33008 ft 382 kts 188°
2026-05-07 12:40 45.89038 15.94901 33010 ft 383 kts 188°
2026-05-07 12:41 45.83691 15.94560 33017 ft 384 kts 188°
2026-05-07 12:41 45.78337 15.94220 33011 ft 385 kts 188°
2026-05-07 12:42 45.72984 15.93881 33020 ft 385 kts 188°
2026-05-07 12:42 45.67634 15.93542 33014 ft 384 kts 188°
2026-05-07 12:43 45.62596 15.93223 33016 ft 384 kts 188°
2026-05-07 12:43 45.57249 15.92886 33010 ft 384 kts 188°
2026-05-07 12:44 45.51904 15.92549 33006 ft 384 kts 188°
2026-05-07 12:44 45.46559 15.92212 33000 ft 385 kts 188°
2026-05-07 12:45 45.41196 15.91876 32998 ft 385 kts 188°
2026-05-07 12:45 45.35875 15.91542 32999 ft 385 kts 188°
2026-05-07 12:46 45.30524 15.91208 32986 ft 380 kts 188°
2026-05-07 12:46 45.25340 15.90888 32991 ft 368 kts 188°
2026-05-07 12:47 45.20228 15.90576 32832 ft 369 kts 188°
2026-05-07 12:47 45.17677 15.90444 32591 ft 363 kts 188°
2026-05-07 12:47 45.15166 15.90321 32198 ft 359 kts 188°
2026-05-07 12:48 45.12686 15.90201 31834 ft 355 kts 188°
2026-05-07 12:48 45.10224 15.90080 31459 ft 352 kts 188°
2026-05-07 12:48 45.07783 15.89957 31098 ft 349 kts 188°
2026-05-07 12:48 45.05392 15.89837 30729 ft 347 kts 188°
2026-05-07 12:49 45.02980 15.89715 30375 ft 344 kts 188°
2026-05-07 12:49 45.00598 15.89595 30014 ft 342 kts 188°
2026-05-07 12:49 44.98225 15.89473 29589 ft 339 kts 188°
2026-05-07 12:49 44.95876 15.89354 29215 ft 336 kts 188°
2026-05-07 12:50 44.93556 15.89237 28853 ft 332 kts 188°
2026-05-07 12:50 44.91256 15.89120 28466 ft 329 kts 188°
2026-05-07 12:50 44.89011 15.89007 28112 ft 326 kts 188°
2026-05-07 12:50 44.86746 15.88891 27764 ft 323 kts 188°
2026-05-07 12:51 44.84503 15.88777 27402 ft 322 kts 188°
2026-05-07 12:51 44.82267 15.88663 27034 ft 321 kts 188°
2026-05-07 12:51 44.80026 15.88549 26684 ft 322 kts 187°
2026-05-07 12:51 44.77761 15.88431 26339 ft 331 kts 187°
2026-05-07 12:52 44.75427 15.88309 25976 ft 339 kts 187°
2026-05-07 12:52 44.73069 15.88189 25571 ft 338 kts 187°
2026-05-07 12:52 44.70732 15.88074 25218 ft 335 kts 187°
2026-05-07 12:52 44.68413 15.87960 24845 ft 333 kts 187°
2026-05-07 12:53 44.66128 15.87847 24487 ft 331 kts 187°
2026-05-07 12:53 44.63833 15.87732 24124 ft 329 kts 187°
2026-05-07 12:53 44.61540 15.87617 23759 ft 328 kts 186°
2026-05-07 12:53 44.59257 15.87503 23373 ft 327 kts 186°
2026-05-07 12:54 44.56987 15.87389 22965 ft 326 kts 186°
2026-05-07 12:54 44.54729 15.87277 22577 ft 324 kts 186°
2026-05-07 12:54 44.52482 15.87165 22227 ft 322 kts 186°
2026-05-07 12:54 44.50251 15.87053 21857 ft 320 kts 186°
2026-05-07 12:55 44.48041 15.86943 21515 ft 316 kts 186°
2026-05-07 12:55 44.45848 15.86834 21205 ft 315 kts 186°
2026-05-07 12:55 44.43655 15.86724 20830 ft 315 kts 186°
2026-05-07 12:55 44.41493 15.86616 20481 ft 314 kts 186°
2026-05-07 12:56 44.39322 15.86508 20146 ft 311 kts 186°
2026-05-07 12:56 44.37163 15.86401 19806 ft 309 kts 186°
2026-05-07 12:56 44.35016 15.86294 19478 ft 308 kts 186°
2026-05-07 12:56 44.32878 15.86187 19140 ft 307 kts 186°
2026-05-07 12:57 44.30748 15.86082 18811 ft 306 kts 186°
2026-05-07 12:57 44.28626 15.85976 18481 ft 305 kts 186°
2026-05-07 12:57 44.26509 15.85871 18121 ft 304 kts 186°
2026-05-07 12:57 44.24402 15.85767 17744 ft 302 kts 186°
2026-05-07 12:58 44.22312 15.85663 17418 ft 300 kts 186°
2026-05-07 12:58 44.20228 15.85559 17071 ft 299 kts 186°
2026-05-07 12:58 44.18147 15.85457 16776 ft 300 kts 186°
2026-05-07 12:58 44.16048 15.85354 16430 ft 303 kts 186°
2026-05-07 12:59 44.13929 15.85345 16048 ft 309 kts 176°
2026-05-07 12:59 44.11861 15.86234 15720 ft 315 kts 159°
2026-05-07 12:59 44.09900 15.87597 15358 ft 315 kts 157°
2026-05-07 12:59 44.07962 15.89021 14994 ft 315 kts 156°
2026-05-07 13:00 44.06056 15.90428 14651 ft 314 kts 156°
2026-05-07 13:00 44.04124 15.91842 14291 ft 313 kts 156°
2026-05-07 13:00 44.02190 15.93245 13936 ft 313 kts 156°
2026-05-07 13:00 44.00256 15.94638 13546 ft 313 kts 156°
2026-05-07 13:01 43.98326 15.96022 13158 ft 312 kts 156°
2026-05-07 13:01 43.96403 15.97398 12793 ft 311 kts 156°
2026-05-07 13:01 43.94484 15.98768 12426 ft 309 kts 156°
2026-05-07 13:01 43.92574 16.00131 12074 ft 308 kts 156°
2026-05-07 13:02 43.90668 16.01489 11722 ft 307 kts 156°
2026-05-07 13:02 43.88770 16.02839 11369 ft 306 kts 156°
2026-05-07 13:02 43.86801 16.03872 10989 ft 300 kts 174°
2026-05-07 13:02 43.84787 16.03838 10680 ft 289 kts 192°
2026-05-07 13:03 43.82841 16.03325 10373 ft 282 kts 194°
2026-05-07 13:03 43.80937 16.02803 10064 ft 276 kts 193°
2026-05-07 13:03 43.79065 16.02302 9848 ft 271 kts 194°
2026-05-07 13:03 43.77198 16.01802 9455 ft 273 kts 194°
2026-05-07 13:04 43.75336 16.01308 9151 ft 271 kts 193°
2026-05-07 13:04 43.73490 16.00822 8838 ft 268 kts 193°
2026-05-07 13:04 43.71666 16.00344 8571 ft 266 kts 192°
2026-05-07 13:04 43.69850 15.99871 8286 ft 263 kts 193°
2026-05-07 13:05 43.68049 15.99400 7778 ft 264 kts 192°
2026-05-07 13:05 43.66246 15.98931 7270 ft 265 kts 192°
2026-05-07 13:05 43.64433 15.98458 6836 ft 265 kts 191°
2026-05-07 13:05 43.62626 15.97988 6441 ft 263 kts 191°
2026-05-07 13:06 43.60823 15.97519 5976 ft 263 kts 191°
2026-05-07 13:06 43.59036 15.97053 5565 ft 262 kts 190°
2026-05-07 13:06 43.57255 15.96596 5300 ft 257 kts 190°
2026-05-07 13:06 43.55509 15.96142 4955 ft 255 kts 190°
2026-05-07 13:07 43.53785 15.95680 4680 ft 248 kts 191°
2026-05-07 13:07 43.52118 15.95226 4316 ft 243 kts 190°
2026-05-07 13:07 43.50442 15.94775 3729 ft 246 kts 187°
2026-05-07 13:07 43.48776 15.94949 3372 ft 237 kts 163°
2026-05-07 13:08 43.47345 15.95905 3130 ft 231 kts 147°
2026-05-07 13:08 43.46068 15.97224 2899 ft 228 kts 143°
2026-05-07 13:08 43.44840 15.98555 2820 ft 220 kts 143°
2026-05-07 13:08 43.43659 15.99826 2797 ft 212 kts 143°
2026-05-07 13:09 43.42497 16.01065 2794 ft 211 kts 144°
2026-05-07 13:09 43.41357 16.02322 2787 ft 210 kts 135°
2026-05-07 13:09 43.40783 16.04137 2808 ft 214 kts 95°
2026-05-07 13:09 43.41205 16.06051 2810 ft 208 kts 65°
2026-05-07 13:10 43.41915 16.07721 2785 ft 198 kts 66°
2026-05-07 13:10 43.42646 16.09367 2806 ft 204 kts 62°
2026-05-07 13:10 43.43470 16.10959 2803 ft 204 kts 59°
2026-05-07 13:10 43.44312 16.12489 2801 ft 195 kts 59°
2026-05-07 13:11 43.45117 16.13943 2691 ft 188 kts 59°
2026-05-07 13:11 43.45903 16.15364 2433 ft 186 kts 59°
2026-05-07 13:11 43.46673 16.16757 2235 ft 184 kts 60°
2026-05-07 13:11 43.47442 16.18148 1986 ft 178 kts 60°
2026-05-07 13:12 43.48173 16.19466 1741 ft 169 kts 60°
2026-05-07 13:12 43.48871 16.20728 1542 ft 160 kts 60°
2026-05-07 13:12 43.49540 16.21944 1312 ft 155 kts 60°
2026-05-07 13:12 43.50175 16.23080 1091 ft 148 kts 59°
2026-05-07 13:13 43.50794 16.24200 940 ft 147 kts 59°
2026-05-07 13:13 43.51411 16.25310 732 ft 145 kts 57°
2026-05-07 13:13 43.52020 16.26416 482 ft 147 kts 57°
2026-05-07 13:13 43.52649 16.27531 312 ft 148 kts 59°
2026-05-07 13:14 43.53265 16.28658 101 ft 151 kts 59°
2026-05-07 13:14 43.53837 16.29694 73 ft 109 kts 52°
2026-05-07 13:14 43.54055 16.30083 61 ft 8 kts 50°
2026-05-07 13:14 43.54060 16.30105 62 ft 0 kts 96°
2026-05-07 13:15 43.54049 16.30111 61 ft 4 kts 171°
2026-05-07 13:15 43.53994 16.30096 60 ft 9 kts 195°
2026-05-07 13:15 43.53941 16.30074 62 ft 7 kts 197°
2026-05-07 13:15 43.53899 16.30043 61 ft 7 kts 225°
2026-05-07 13:16 43.53868 16.29993 67 ft 7 kts 232°
2026-05-07 13:16 43.53840 16.29941 67 ft 7 kts 233°
2026-05-07 13:16 43.53812 16.29890 67 ft 7 kts 232°
2026-05-07 13:16 43.53785 16.29841 66 ft 6 kts 232°
2026-05-07 13:17 43.53761 16.29803 64 ft 2 kts 211°
2026-05-07 13:17 43.53749 16.29811 60 ft 2 kts 122°
2026-05-07 13:17 43.53739 16.29845 67 ft 4 kts 115°
2026-05-07 13:17 43.53733 16.29863 62 ft 0 kts 115°
2026-05-07 13:18 43.53731 16.29869 63 ft 2 kts 115°
2026-05-07 13:18 43.53729 16.29873 64 ft 0 kts 115°